Location: Helstorf
(52.5868°N, 9.5862°E)
Time: 11:16:53
(UTC+00:00)

Meteor 2-10 - Pass Details

Date: 15 May 2026
Orbit: 737 x 865 km, 81.2° (Epoch: 5 June)

Event Time Altitude Azimuth Distance (km) Brightness Sun altitude
Rises 20:29:40 0° 347° (NNW) 3,454 8.6 -9.6°
Reaches altitude 10° 20:32:08 10° 351° (N) 2,518 7.7 -9.9°
Maximum altitude 20:37:51 65° 73° (ENE) 949 4.4 -10.4°
Enters shadow 20:42:50 14° 154° (SSE) 2,240 5.8 -10.9°
